Probability
0 0 0 0 0 0 0 0 0 0 0 0 0 0 0 0 0 0 0 0 0 0 0 0 0 0 0 0 0 0 0 0 0 0 0 0 0 0 0 0 0 0 0
0 0 0 0 0 0 0 0 0 0 0 0 0 0 0 0 0 0 0 0 0 0 0 0 0 0 0 0 0 0 0 0 0 0 0 0 0 0 0 0 0 0 0
0 0 0 0 0 0 0 0 0 0 0 0 0 0 0 0 0 0 0 0 0 0 0 0 0 0 0 0 0 0 0 0 0 0 0 0 0 0 0 0 0 0 0
0 0 0 0 0 0 0 0 0 0 0 0 0 0 0 0 0 0 0 0 0 0 0 0 0 0 0 0 0 0 0 0 0 0 0 0 0 0 0 0 0 0 0
0 0 0 0 0 0 0 0 0 0 0 0 0 0 0 0 0 0 0 0 0 0 0 0 0 0 0 0 0 0 0 0 0 0 0 0 0 0 0 0 0 0 0
0 0 0 0 0 0 0 0 0 0 0 0 0 0 0 0 0 0 0 0 0 0 0 0 0 0 0 0 0 0 0 0 0 0 0 0 0 0 0 0 0 0 0
0 0 0 0 0 0 0 0 0 0 0 0 0 0 0 0 0 0 0 0 0 0 0 0 0 0 0 0 0 0 0 0 0 0 0 0 0 0 0 0 0 0 0
0 0 0 0 0 0 0 0 0 0 0 0 0 0 0 0 0 0 0 0 0 0 0 0 0 0 0 0 0 0 0 0 0 0 0 0 0 0 0 0 0 0 0
0 0 0 0 0 0 0 0 0 0 0 0 0 0 0 0 0 0 0 0 0 0 0 0 0 0 0 0 0 0 0 0 0 0 0 0 0 0 0 0 0 0 0
0 0 0 0 0 0 0 0 0 0 0 0 0 0 0 0 0 0 0 0 0 0 0 0 0 0 0 0 0 0 0 0 0 0 0 0 0 0 0 0 0 0 0
0 0 0 0 0 0 0 0 0 0 0 0 0 0 0 0 0 0 0 0 0 0 0 0 0 0 0 0 0 0 0 0 0 0 0 0 0 0 0 0 0 0 0
0 0 0 0 0 0 0 0 0 0 0 0 0 0 0 0 0 0 0 0 0 0 0 0 0 0 0 0 0 0 0 0 0 0 0 0 0 0 0 0 0 0 0
0 0 0 0 0 0 0 0 0 0 0 0 0 0 0 0 0 0 0 0 0 0 0 0 0 0 0 0 0 0 0 0 0 0 0 0 0 0 0 0 0 0 0
0 0 0 0 0 0 0 0 0 0 0 0 0 0 0 0 0 0 0 0 0 0 0 0 0 0 0 0 0 0 0 0 0 0 0 0 0 0 0 0 0 0 0
0 0 0 0 0 0 0 0 0 0 0 0 0 0 0 0 0 0 0 0 0 0 0 0 0 0 0 0 0 0 0 0 0 0 0 0 0 0 0 0 0 0 0
0 0 0 0 0 0 0 0 0 0 0 0 0 0 0 0 0 0 0 0 0 0 0 0 0 0 0 0 0 0 0 0 0 0 0 0 0 0 0 0 0 0 0
0 0 0 0 0 0 0 0 0 0 0 0 0 0 0 0 0 0 0 0 0 0 0 0 0 0 0 0 0 0 0 0 0 0 0 0 0 0 0 0 0 0 0
0 0 0 0 0 0 0 0 0 0 0 0 0 0 0 0 0 0 0 0 0 0 0 0 0 0 0 0 0 0 0 0 0 0 0 0 0 0 0 0 0 0 0
0 0 0 0 0 0 0 0 0 0 0 0 0 0 0 0 0 0 0 0 0 0 0 0 0 0 0 0 0 0 0 0 0 0 0 0 0 0 0 0 0 0 0
0 0 0 0 0 0 0 0 0 0 0 0 0 0 0 0 0 0 0 0 0 0 0 0 0 0 0 0 0 0 0 0 0 0 0 0 0 0 0 0 0 0 0
0 0 0 0 0 0 0 0 0 0 0 0 0 0 0 0 0 0 0 0 0 0 0 0 0 0 0 0 0 0 0 0 0 0 0 0 0 0 0 0 0 0 0
0 0 0 0 0 0 0 0 0 0 0 0 0 0 0 0 0 0 0 0 0 0 0 0 0 0 0 0 0 0 0 0 0 0 0 0 0 0 0 0 0 0 0
0 0 0 0 0 0 0 0 0 0 0 0 0 0 0 0 0 0 0 0 0 0 0 0 0 0 0 0 0 0 0 0 0 0 0 0 0 0 0 0 0 0 0
0 0 0 0 0 0 0 0 0 0 0 0 0 0 0 0 0 0 0 0 0 0 0 0 0 0 0 0 0 0 0 0 0 0 0 0 0 0 0 0 0 0 0
0 0 0 0 0 0 0 0 0 0 0 0 0 0 0 0 0 0 0 0 0 0 0 0 0 0 0 0 0 0 0 0 0 0 0 0 0 0 0 0 0 0 0
0 0 0 0 0 0 0 0 0 0 0 0 0 0 0 0 0 0 0 0 0 0 0 0 0 0 0 0 0 0 0 0 0 0 0 0 0 0 0 0 0 0 0
Wind_Speed
2 2 2 1 1 1 1 1 1 1 1 1 1 1 1 1 1 0 1 1 1 2 2 1 2 1 1 1 0 0 1 2 2 2 2 2 1 2 1 1 2 2 3
2 2 2 1 1 1 0 1 0 1 1 1 1 1 1 1 0 0 1 1 1 2 2 2 3 2 1 1 1 1 1 2 3 2 2 1 2 2 2 1 2 2 3
3 3 2 1 1 1 0 1 1 1 1 1 1 0 1 1 1 1 0 1 1 2 2 2 2 1 2 2 2 2 2 2 2 2 2 1 2 1 1 1 1 1 3
3 3 2 1 1 0 0 1 1 1 1 1 1 0 0 1 0 1 1 1 1 2 2 2 2 2 2 2 2 2 2 2 1 2 2 2 2 2 0 1 1 1 2
4 3 1 0 1 1 1 1 2 2 2 1 1 1 1 1 1 1 1 1 1 2 2 2 2 2 3 2 2 2 2 2 2 2 2 1 2 1 2 2 2 1 2
4 2 1 2 2 1 1 1 2 2 2 2 2 1 2 2 2 1 1 1 1 2 3 4 3 3 4 4 4 3 2 2 3 3 3 3 4 3 2 2 2 1 2
3 2 2 2 2 2 2 2 2 2 2 2 2 2 2 3 3 3 2 1 1 2 3 3 4 3 4 3 5 5 4 5 5 3 4 5 5 4 3 3 3 4 4
2 2 1 1 1 2 2 2 2 2 2 2 2 2 2 4 5 3 3 1 1 2 3 3 3 4 4 4 3 4 4 4 6 5 5 6 6 5 5 5 5 4 3
2 1 0 1 1 1 2 2 1 1 2 2 2 2 2 4 6 4 2 1 2 3 4 3 3 4 7 6 3 4 5 5 6 7 8 8 9 9 6 3 2 2 3
2 1 1 1 1 0 1 1 1 1 2 2 3 2 2 4 6 5 3 0 2 3 4 4 6 6 8 6 3 4 5 6 5 5 5 6 6 7 8 6 5 4 3
2 1 0 0 1 1 1 1 1 1 2 3 3 3 3 4 6 6 4 1 2 3 3 4 4 9 9 9 6 5 8 7 5 4 4 4 4 4 5 5 6 6 5
1 1 0 1 1 1 0 1 1 1 2 3 3 4 4 4 5 6 7 5 4 3 4 4 5 10 10 10 7 8 10 8 3 3 4 5 4 5 5 5 6 6 6
2 1 0 1 1 0 0 1 1 1 1 2 3 3 4 4 5 8 8 8 8 4 5 8 10 11 10 8 9 11 8 4 3 4 6 6 5 5 4 4 4 4 4
2 0 0 1 1 1 1 1 1 1 2 3 3 4 4 4 4 4 4 5 6 5 5 8 10 10 8 8 9 7 4 4 5 6 6 6 4 4 4 4 4 3 3
2 0 0 1 1 1 2 2 2 3 4 4 4 4 4 5 7 8 5 4 4 5 5 3 3 3 4 4 4 5 4 4 5 5 5 6 5 5 5 4 4 3 4
2 1 1 1 1 1 2 3 5 5 8 8 7 6 6 8 11 10 10 10 9 8 4 3 4 4 5 5 5 5 4 5 6 5 5 6 6 6 5 4 4 5 5
3 2 1 1 1 1 2 2 4 6 7 7 9 10 10 11 12 11 10 10 9 6 3 4 5 5 6 5 5 5 6 5 5 5 6 6 6 6 5 5 5 5 5
2 2 1 2 2 2 2 2 3 4 5 5 7 9 11 12 12 11 10 7 4 3 4 5 6 6 6 6 6 6 6 5 5 5 6 6 6 6 6 6 6 6 6
2 2 2 2 2 2 2 3 3 4 4 5 5 7 9 10 10 9 7 3 4 5 5 5 6 6 6 6 6 6 6 6 6 5 6 6 6 6 6 6 6 9 7
2 3 2 1 2 2 3 3 4 4 5 5 5 6 5 5 5 5 4 4 5 5 6 6 6 6 6 6 6 6 6 6 6 6 6 6 6 6 7 8 7 7 7
2 2 4 2 2 3 3 4 4 4 5 5 6 7 9 5 6 6 5 5 5 6 6 6 6 6 6 5 5 6 7 7 6 6 6 6 6 6 6 6 6 7 6
2 2 2 3 3 4 4 4 4 5 6 7 6 7 10 6 5 6 6 6 6 6 6 6 6 6 5 6 6 6 7 7 7 6 6 6 6 6 5 5 6 5 6
2 3 3 4 4 6 5 5 5 5 6 6 6 6 6 6 6 6 6 6 6 6 5 5 6 6 6 6 6 6 7 8 7 7 7 7 6 6 6 6 7 7 6
3 4 4 4 4 5 5 6 6 6 6 6 6 6 6 6 6 7 7 6 6 6 6 6 6 8 10 8 6 6 7 8 8 7 9 9 8 6 6 6 7 8 7
4 4 5 5 5 5 6 6 6 6 6 6 6 6 6 6 7 7 7 6 7 7 7 7 6 7 9 11 10 9 11 13 12 9 8 7 8 8 7 7 6 6 6
4 5 5 5 5 5 6 6 6 6 6 6 6 6 7 7 6 6 6 6 6 6 7 6 7 9 10 9 10 12 13 13 13 12 9 7 7 7 6 6 7 7 7
Wind_Direction
146 138 125 137 128 114 119 219 242 255 234 219 231 234 240 261 276 256 278 291 314 314 319 311 295 288 294 294 268 191 179 167 206 272 278 297 290 279 291 254 233 221 226
140 122 130 125 101 86 61 296 284 277 274 244 242 262 277 296 302 237 284 291 282 291 301 313 299 294 286 279 255 242 226 199 191 243 281 291 269 256 250 249 243 220 222
111 105 97 90 88 80 336 319 341 346 356 10 52 38 302 308 316 286 288 311 295 277 275 270 283 290 282 275 255 246 243 230 200 211 256 267 276 275 275 273 255 259 234
100 96 90 82 98 128 355 6 4 6 19 11 24 20 311 302 314 312 323 323 323 308 290 269 268 246 247 256 257 253 246 241 229 223 248 263 269 279 230 248 273 261 250
98 87 76 33 36 40 24 10 7 15 13 9 19 2 343 334 329 323 311 320 321 321 316 297 280 278 266 251 251 245 232 235 236 231 244 258 260 257 239 231 236 260 262
105 100 74 53 42 32 18 18 16 4 356 6 359 341 337 345 339 334 337 302 304 305 304 302 296 291 295 286 280 261 220 215 226 225 235 235 243 235 230 222 216 217 257
104 89 69 58 41 19 22 33 11 354 359 351 337 334 319 313 334 347 346 339 302 290 289 296 305 310 304 292 291 288 268 254 226 215 228 238 237 226 214 224 219 214 229
103 88 69 62 40 22 29 17 347 346 348 327 321 320 310 314 325 327 332 352 327 309 293 278 279 290 296 290 280 285 279 272 253 234 231 245 245 234 216 220 221 227 251
109 116 111 93 64 33 8 328 317 336 330 313 308 313 306 303 319 325 340 331 309 305 305 299 289 282 298 301 281 276 282 283 273 259 254 255 256 246 226 208 208 204 243
195 207 201 157 145 194 283 296 310 313 301 312 316 309 294 289 306 316 321 255 290 298 303 299 294 295 300 300 276 265 273 278 285 288 278 272 265 256 235 217 210 209 218
208 194 219 254 228 226 275 312 323 321 331 329 318 309 303 293 299 305 305 255 257 281 292 292 291 300 299 293 280 254 262 274 268 259 266 269 268 261 250 235 221 213 214
143 119 346 309 306 13 360 323 331 337 332 323 317 313 305 299 289 294 296 282 275 256 268 271 278 291 293 295 286 275 279 283 266 255 255 255 253 252 251 242 233 227 227
120 108 342 344 333 338 230 299 321 328 315 305 307 300 301 302 298 296 295 294 285 267 264 274 282 286 290 290 283 281 281 265 256 258 252 250 245 245 246 246 239 234 239
130 174 300 342 330 326 297 261 272 286 294 296 293 288 291 296 294 289 281 285 284 283 282 286 289 285 279 277 285 283 263 248 245 250 258 257 251 244 240 231 228 221 232
135 177 295 297 274 288 289 270 259 250 247 263 265 266 276 286 281 281 282 275 272 269 288 291 292 291 285 281 279 274 266 263 256 249 254 260 255 247 243 232 221 214 223
155 203 239 269 282 288 299 312 296 282 290 286 283 285 279 277 291 294 288 283 284 286 289 279 279 275 271 273 274 275 268 261 258 255 252 253 253 248 245 235 221 217 225
174 195 212 234 263 284 295 300 309 315 310 300 295 297 294 296 297 294 290 289 287 284 272 269 270 270 270 268 265 264 266 263 259 254 252 252 253 251 245 238 228 227 229
186 205 210 224 241 255 266 275 277 290 306 308 304 300 301 298 295 290 290 298 293 275 260 265 267 268 268 267 266 265 267 268 263 261 258 253 249 247 244 239 231 227 230
194 219 225 234 247 255 265 276 279 281 281 288 299 304 304 302 297 290 289 274 272 271 265 265 266 267 267 265 265 264 263 264 262 259 259 256 252 250 244 238 234 230 226
222 262 267 251 259 271 275 277 280 279 280 282 285 287 298 305 299 295 277 265 266 270 269 267 269 269 268 266 266 266 265 264 263 258 256 255 253 253 248 242 237 233 226
222 265 288 284 259 259 265 267 270 271 273 275 275 277 283 282 278 279 277 268 265 268 272 273 273 274 271 270 269 269 269 267 262 260 258 255 251 250 252 245 240 238 231
216 236 249 256 262 265 267 264 266 268 272 276 281 286 288 280 275 278 275 274 270 266 266 269 273 270 267 265 266 268 270 270 267 263 259 257 253 248 251 251 240 233 230
222 242 255 261 263 273 278 274 270 269 272 276 278 282 282 277 275 275 275 274 274 272 269 267 271 274 272 268 262 260 263 264 263 262 261 258 251 245 242 247 246 235 230
231 242 252 262 267 267 269 272 271 270 273 276 278 277 276 275 275 275 276 276 275 274 271 269 269 271 275 276 273 268 265 264 263 260 257 255 251 247 243 241 244 240 228
241 249 256 259 263 266 268 271 271 271 273 276 278 278 276 275 274 275 275 273 273 273 272 269 269 272 274 276 277 275 274 269 264 262 258 250 246 243 241 237 237 237 227
252 256 258 259 261 263 265 269 270 270 271 274 275 275 275 275 274 275 277 276 276 275 274 271 271 275 278 279 280 279 277 273 268 262 257 250 242 238 234 235 232 228 220